Flight Track Log - Related Links

Times and Time Zones

All times are in EDT time to prevent confusion due to time zone crossing. See the ASQ6157 flight status page for this flight to view local times or setup timezone preferences in your user account.

Time Position Orientation Groundspeed Altitude Reporting Facility
EDT Latitude Longitude Course Direction KTS MPH feet Rate Location/Type
12:35PM 41.9500 -87.9667 149° Southeast 143 165 4,100  Level Chicago TRACON
12:36PM 41.9000 -88.0000 206° Southwest 225 259 5,000 797 Climbing Chicago TRACON
12:37PM 41.5078 -87.6218 153° Southeast  Level FlightAware Approximate
12:37PM 41.8319 -87.9342 144° Southeast 260 299 5,800  Level Chicago Center
12:38PM 41.3890 -87.5630 166° South  Level FlightAware Approximate
12:38PM 41.7697 -87.8775 146° Southeast 267 307 8,600  Level Chicago Center
12:39PM 41.2626 -87.5375 174° South  Level FlightAware Approximate
12:39PM 41.7011 -87.8156 146° Southeast 272 313 11,200  Level Chicago Center
12:40PM 41.1813 -87.5017 149° Southeast  Level FlightAware Approximate
12:40PM 41.6389 -87.7619 147° Southeast 290 334 12,900  Level Chicago Center
12:41PM 41.5608 -87.6914 146° Southeast 306 352 14,400 1,355 Climbing Chicago Center
12:42PM 41.4764 -87.6178 147° Southeast 358 412 15,700 1,403 Climbing Chicago Center
12:43PM 41.3836 -87.5439 149° Southeast 359 413 17,300 1,317 Climbing Chicago Center
12:44PM 41.2936 -87.4758 150° Southeast 376 433 18,400 1,463 Climbing Chicago Center
12:45PM 41.2006 -87.4036 150° Southeast 385 443 20,300 1,742 Climbing Chicago Center
12:46PM 41.1103 -87.3336 150° Southeast 383 441 22,000 1,161 Climbing Chicago Center
12:47PM 41.0161 -87.2631 151° Southeast 385 443 22,700 488 Climbing Chicago Center
12:48PM 40.9200 -87.1908 150° Southeast 395 455 23,000 146 Climbing Chicago Center
12:49PM 40.8261 -87.1192 150° Southeast 394 453 23,000  Level Chicago Center
12:50PM 40.7103 -87.0317 150° Southeast 399 459 23,000  Level Chicago Center
12:51PM 40.6008 -86.9500 150° Southeast 427 491 23,000  Level Chicago Center
12:52PM 40.4950 -86.8700 150° Southeast 434 499 23,000  Level Chicago Center
12:53PM 40.3875 -86.7894 150° Southeast 441 507 23,000  Level Chicago Center
12:54PM 40.2783 -86.7089 151° Southeast 449 517 23,000  Level Chicago Center
12:55PM 40.1719 -86.6306 151° Southeast 446 513 23,000  Level Chicago Center
12:56PM 40.0856 -86.5667 150° Southeast 445 512 23,000  Level Indianapolis Center
12:57PM 39.9789 -86.4883 151° Southeast 444 511 23,000 -194 Level Indianapolis Center
12:58PM 39.8725 -86.4103 151° Southeast 444 511 22,600 -1,258 Descending Indianapolis Center
12:59PM 39.7828 -86.2725 130° Southeast 451 519 20,400 -2,129 Descending Indianapolis Center
01:00PM 39.7381 -86.1381 113° Southeast 440 506 18,200 -2,226 Descending Indianapolis Center
01:01PM 39.6922 -86.0019 114° Southeast 418 481 15,800 -2,323 Descending Indianapolis Center
01:02PM 39.6483 -85.8711 114° Southeast 403 464 13,400 -1,984 Descending Indianapolis Center
01:03PM 39.6044 -85.7419 114° Southeast 397 457 11,700 -1,210 Descending Indianapolis Center
01:04PM 39.5542 -85.5931 114° Southeast 382 440 10,900 -387 Descending Indianapolis Center
01:05PM 39.5114 -85.4714 114° Southeast 377 434 10,900 -146 Level Indianapolis Center
01:06PM 39.4711 -85.3492 113° Southeast 370 426 10,600 -683 Descending Indianapolis Center
01:07PM 39.4333 -85.2378 114° Southeast 340 391 9,500 -1,210 Descending Indianapolis Center
01:08PM 39.4019 -85.1378 112° Southeast 307 353 8,100 -726 Descending Indianapolis Center
01:09PM 39.3914 -85.0300 97° East 308 354 8,000 -532 Descending Indianapolis Center
01:10PM 39.3914 -84.8953 90° East 311 358 7,000 -1,210 Descending Indianapolis Center
01:11PM 39.3675 -84.8167 111° Southeast 282 325 5,500 -1,694 Descending Indianapolis Center
01:12PM 39.3169 -84.7231 125° Southeast 270 311 3,500 -789 Descending Indianapolis Center
01:15PM 39.2333 -84.6667 152° Southeast 161 185 3,000 -165 Descending Cincinnati TRACON
01:15PM 39.1833 -84.6667 180° South 170 196 3,000 -263 Level Cincinnati TRACON
01:16PM 39.1500 -84.6667 180° South 138 159 2,500 -600 Descending Cincinnati TRACON
01:17PM 39.1167 -84.6667 180° South 117 135 1,800 -700 Descending Cincinnati TRACON

Login

Don't have an account? Register now (free) for customized features, flight alerts, and more!